| time (UTC) | temp F | wind direction | speed knots | gust knots | rain 1hr in | rain 24hr in | rain mn in | humidity % | barometer mb |
| 20260903152041 | 65 | 192 | 1.7 | 5.2 | 0.00 | 0.00 | 0.00 | 73 | 1018.6 |
| 20260903151538 | 65 | 228 | 0.9 | 7.8 | 0.00 | 0.00 | 0.00 | 73 | 1018.7 |
| 20260903151037 | 65 | 227 | 1.7 | 7.8 | 0.00 | 0.00 | 0.00 | 73 | 1018.6 |
| 20260903150537 | 65 | 234 | 1.7 | 4.3 | 0.00 | 0.00 | 0.00 | 73 | 1018.6 |
| 20260903150038 | 65 | 265 | 0.9 | 7.0 | 0.00 | 0.00 | 0.00 | 74 | 1018.5 |
| 20260903145536 | 65 | 238 | 1.7 | 7.0 | 0.00 | 0.00 | 0.00 | 72 | 1018.6 |
| 20260903145036 | 65 | 255 | 0.9 | 8.7 | 0.00 | 0.00 | 0.00 | 73 | 1018.8 |
| 20260903144543 | 65 | 298 | 2.6 | 6.1 | 0.00 | 0.00 | 0.00 | 72 | 1018.8 |
| 20260903144038 | 65 | 275 | 1.7 | 6.1 | 0.00 | 0.00 | 0.00 | 72 | 1018.7 |
| 20260903143534 | 65 | 235 | 1.7 | 7.0 | 0.00 | 0.00 | 0.00 | 72 | 1018.7 |
| 20260903143044 | 65 | 277 | 2.6 | 7.8 | 0.00 | 0.00 | 0.00 | 72 | 1018.7 |
| 20260903142535 | 66 | 233 | 1.7 | 7.8 | 0.00 | 0.00 | 0.00 | 71 | 1018.8 |
| 20260903142035 | 66 | 225 | 2.6 | 8.7 | 0.00 | 0.00 | 0.00 | 70 | 1018.8 |
| 20260903141535 | 67 | 283 | 2.6 | 6.1 | 0.00 | 0.00 | 0.00 | 69 | 1018.7 |
| 20260903141036 | 67 | 235 | 1.7 | 6.1 | 0.00 | 0.00 | 0.00 | 69 | 1018.8 |
| 20260903140534 | 68 | 271 | 2.6 | 8.7 | 0.00 | 0.00 | 0.00 | 67 | 1018.7 |
| 20260903140041 | 68 | 189 | 3.5 | 8.7 | 0.00 | 0.00 | 0.00 | 66 | 1018.7 |
| 20260903135534 | 68 | 273 | 2.6 | 6.1 | 0.00 | 0.00 | 0.00 | 69 | 1018.6 |
| 20260903135035 | 68 | 248 | 1.7 | 7.8 | 0.00 | 0.00 | 0.00 | 67 | 1018.6 |
| 20260903134533 | 69 | 200 | 1.7 | 7.0 | 0.00 | 0.00 | 0.00 | 65 | 1018.8 |
| 20260903134032 | 69 | 207 | 2.6 | 7.8 | 0.00 | 0.00 | 0.00 | 68 | 1018.9 |
| 20260903133534 | 69 | 300 | 3.5 | 7.8 | 0.00 | 0.00 | 0.00 | 67 | 1018.8 |
| 20260903133030 | 68 | 314 | 3.5 | 7.8 | 0.00 | 0.00 | 0.00 | 68 | 1018.8 |
| 20260903132528 | 67 | 207 | 2.6 | 6.1 | 0.00 | 0.00 | 0.00 | 68 | 1019.0 |
| 20260903132028 | 67 | 250 | 0.9 | 7.0 | 0.00 | 0.00 | 0.00 | 72 | 1019.1 |
| 20260903131529 | 67 | 188 | 2.6 | 8.7 | 0.00 | 0.00 | 0.00 | 70 | 1019.2 |
| 20260903131029 | 66 | 248 | 2.6 | 10.4 | 0.00 | 0.00 | 0.00 | 69 | 1019.2 |
| 20260903130529 | 66 | 152 | 2.6 | 10.4 | 0.00 | 0.00 | 0.00 | 69 | 1019.3 |
| 20260903130029 | 66 | 291 | 4.3 | 8.7 | 0.00 | 0.00 | 0.00 | 69 | 1019.4 |
| 20260903125528 | 67 | 241 | 2.6 | 7.0 | 0.00 | 0.00 | 0.00 | 70 | 1019.2 |
| 20260903125028 | 67 | 184 | 2.6 | 6.1 | 0.00 | 0.00 | 0.00 | 70 | 1019.1 |
| 20260903124527 | 67 | 141 | 1.7 | 4.3 | 0.00 | 0.00 | 0.00 | 71 | 1019.0 |
| 20260903124026 | 68 | 169 | 0.9 | 7.0 | 0.00 | 0.00 | 0.00 | 69 | 1019.3 |
| 20260903123530 | 68 | 222 | 1.7 | 8.7 | 0.00 | 0.00 | 0.00 | 68 | 1019.3 |
| 20260903123027 | 69 | 243 | 3.5 | 9.6 | 0.00 | 0.00 | 0.00 | 68 | 1019.4 |
| 20260903122527 | 69 | 227 | 1.7 | 8.7 | 0.00 | 0.00 | 0.00 | 74 | 1019.3 |
| 20260903122023 | 68 | 185 | 2.6 | 6.1 | 0.00 | 0.00 | 0.00 | 71 | 1019.4 |
| 20260903121530 | 68 | 228 | 0.9 | 7.0 | 0.00 | 0.00 | 0.00 | 72 | 1019.3 |
| 20260903121021 | 67 | 181 | 2.6 | 7.0 | 0.00 | 0.00 | 0.00 | 72 | 1019.3 |
| 20260903120520 | 66 | 134 | 1.7 | 7.0 | 0.00 | 0.00 | 0.00 | 73 | 1019.3 |
| 20260903120035 | 66 | 243 | 2.6 | 5.2 | 0.00 | 0.00 | 0.00 | 73 | 1019.3 |
| 20260903115516 | 65 | 293 | 1.7 | 7.0 | 0.00 | 0.00 | 0.00 | 75 | 1019.3 |
| 20260903115017 | 65 | 257 | 1.7 | 7.0 | 0.00 | 0.00 | 0.00 | 74 | 1019.4 |
| 20260903114516 | 65 | 190 | 0.9 | 7.0 | 0.00 | 0.00 | 0.00 | 74 | 1019.6 |
| 20260903114015 | 65 | 198 | 2.6 | 8.7 | 0.00 | 0.00 | 0.00 | 74 | 1019.7 |
| 20260903113515 | 65 | 113 | 3.5 | 8.7 | 0.00 | 0.00 | 0.00 | 73 | 1019.7 |
| 20260903113020 | 64 | 244 | 2.6 | 7.0 | 0.00 | 0.00 | 0.00 | 73 | 1019.9 |
| 20260903112515 | 65 | 218 | 3.5 | 7.0 | 0.00 | 0.00 | 0.00 | 73 | 1020.1 |
| 20260903112017 | 65 | 217 | 0.9 | 6.1 | 0.00 | 0.00 | 0.00 | 75 | 1019.9 |
| 20260903111515 | 64 | 248 | 0.9 | 6.1 | 0.00 | 0.00 | 0.00 | 75 | 1019.9 |
| 20260903111017 | 64 | 229 | 1.7 | 6.1 | 0.00 | 0.00 | 0.00 | 74 | 1019.8 |
| 20260903110513 | 64 | 212 | 2.6 | 7.0 | 0.00 | 0.00 | 0.00 | 73 | 1019.8 |
| 20260903110013 | 64 | 155 | 0.9 | 6.1 | 0.00 | 0.00 | 0.00 | 76 | 1019.7 |
| 20260903105512 | 64 | 209 | 0.9 | 6.1 | 0.00 | 0.00 | 0.00 | 76 | 1020.0 |
| 20260903105012 | 64 | 174 | 0.9 | 6.1 | 0.00 | 0.00 | 0.00 | 75 | 1020.1 |
| 20260903104512 | 64 | 195 | 1.7 | 7.0 | 0.00 | 0.00 | 0.00 | 76 | 1020.1 |
| 20260903104012 | 64 | 263 | 0.9 | 7.0 | 0.00 | 0.00 | 0.00 | 77 | 1020.1 |
| 20260903103510 | 64 | 227 | 1.7 | 6.1 | 0.00 | 0.00 | 0.00 | 76 | 1020.1 |
| 20260903103010 | 64 | 233 | 0.9 | 7.8 | 0.00 | 0.00 | 0.00 | 75 | 1020.3 |
| 20260903102510 | 64 | 190 | 2.6 | 7.8 | 0.00 | 0.00 | 0.00 | 74 | 1020.3 |
| 20260903102009 | 64 | 272 | 1.7 | 6.1 | 0.00 | 0.00 | 0.00 | 74 | 1020.4 |
| 20260903101520 | 64 | 290 | 1.7 | 6.1 | 0.00 | 0.00 | 0.00 | 73 | 1020.4 |
| 20260903101009 | 64 | 288 | 1.7 | 7.8 | 0.00 | 0.00 | 0.00 | 74 | 1020.4 |
| 20260903100509 | 64 | 231 | 1.7 | 7.0 | 0.00 | 0.00 | 0.00 | 74 | 1020.4 |
| 20260903100020 | 64 | 276 | 3.5 | 7.0 | 0.00 | 0.00 | 0.00 | 72 | 1020.5 |
| 20260903095507 | 65 | 256 | 2.6 | 7.8 | 0.00 | 0.00 | 0.00 | 73 | 1020.4 |
| 20260903095007 | 65 | 225 | 1.7 | 7.8 | 0.00 | 0.00 | 0.00 | 76 | 1020.5 |
| 20260903094514 | 64 | 229 | 1.7 | 7.0 | 0.00 | 0.00 | 0.00 | 76 | 1020.5 |
| 20260903094005 | 64 | 229 | 1.7 | 7.0 | 0.00 | 0.00 | 0.00 | 76 | 1020.6 |
| 20260903093507 | 64 | 164 | 2.6 | 5.2 | 0.00 | 0.00 | 0.00 | 75 | 1020.7 |
| 20260903093004 | 64 | 230 | 1.7 | 5.2 | 0.00 | 0.00 | 0.00 | 77 | 1020.6 |
| 20260903092506 | 63 | 221 | 1.7 | 7.0 | 0.00 | 0.00 | 0.00 | 76 | 1020.6 |
| 20260903092002 | 63 | 230 | 1.7 | 7.0 | 0.00 | 0.00 | 0.00 | 76 | 1020.7 |
| 20260903091502 | 63 | 244 | 1.7 | 7.0 | 0.00 | 0.00 | 0.00 | 75 | 1020.6 |
| 20260903091003 | 63 | 265 | 2.6 | 7.8 | 0.00 | 0.00 | 0.00 | 75 | 1020.6 |
| 20260903090502 | 64 | 209 | 1.7 | 7.8 | 0.00 | 0.00 | 0.00 | 78 | 1020.7 |
| 20260903090100 | 63 | 241 | 1.7 | 7.8 | 0.00 | 0.00 | 0.00 | 79 | 1020.6 |
| 20260903085559 | 63 | 259 | 0.9 | 6.1 | 0.00 | 0.00 | 0.00 | 81 | 1020.6 |
| 20260903085059 | 63 | 213 | 1.7 | 7.0 | 0.00 | 0.00 | 0.00 | 79 | 1020.7 |
| 20260903084601 | 63 | 148 | 2.6 | 7.0 | 0.00 | 0.00 | 0.00 | 80 | 1020.8 |
| 20260903084058 | 63 | 226 | 1.7 | 5.2 | 0.00 | 0.00 | 0.00 | 80 | 1020.8 |
| 20260903083557 | 62 | 208 | 3.5 | 5.2 | 0.00 | 0.00 | 0.00 | 79 | 1020.8 |
| 20260903083057 | 62 | 185 | 2.6 | 7.0 | 0.00 | 0.00 | 0.00 | 79 | 1020.7 |
| 20260903082556 | 62 | 209 | 0.9 | 7.0 | 0.00 | 0.00 | 0.00 | 80 | 1020.6 |
| 20260903082056 | 62 | 229 | 2.6 | 7.0 | 0.00 | 0.00 | 0.00 | 81 | 1020.7 |
| 20260903081556 | 62 | 209 | 1.7 | 5.2 | 0.00 | 0.00 | 0.00 | 81 | 1020.7 |
| 20260903081054 | 62 | 261 | 2.6 | 7.0 | 0.00 | 0.00 | 0.00 | 80 | 1020.6 |
| 20260903080554 | 62 | 263 | 2.6 | 7.0 | 0.00 | 0.00 | 0.00 | 79 | 1020.6 |
| 20260903080056 | 62 | 284 | 0.9 | 6.1 | 0.00 | 0.00 | 0.00 | 82 | 1020.5 |
| 20260903075554 | 62 | 143 | 0.0 | 6.1 | 0.00 | 0.00 | 0.00 | 82 | 1020.6 |
| 20260903075051 | 61 | 294 | 0.0 | 6.1 | 0.00 | 0.00 | 0.00 | 82 | 1020.6 |
| 20260903074550 | 61 | 221 | 0.0 | 6.1 | 0.00 | 0.00 | 0.00 | 84 | 1020.7 |
| 20260903074050 | 61 | 256 | 1.7 | 6.1 | 0.00 | 0.00 | 0.00 | 83 | 1020.8 |
| 20260903073550 | 61 | 175 | 1.7 | 6.1 | 0.00 | 0.00 | 0.00 | 83 | 1020.8 |
| 20260903073050 | 61 | 221 | 0.9 | 3.5 | 0.00 | 0.00 | 0.00 | 83 | 1020.9 |
| 20260903072548 | 60 | 212 | 0.0 | 0.0 | 0.00 | 0.00 | 0.00 | 86 | 1020.8 |
| 20260903072047 | 60 | 164 | 0.0 | 0.0 | 0.00 | 0.00 | 0.00 | 86 | 1020.8 |
| 20260903071557 | 59 | 199 | 0.0 | 0.0 | 0.00 | 0.00 | 0.00 | 84 | 1020.7 |
| 20260903071044 | 59 | 187 | 0.0 | 0.0 | 0.00 | 0.00 | 0.00 | 84 | 1020.8 |
| 20260903070543 | 59 | 173 | 0.0 | 0.0 | 0.00 | 0.00 | 0.00 | 85 | 1020.9 |
| 20260903070043 | 59 | 167 | 0.0 | 0.0 | 0.00 | 0.00 | 0.00 | 84 | 1020.8 |
| 20260903065548 | 59 | 167 | 0.0 | 0.0 | 0.00 | 0.00 | 0.00 | 83 | 1020.8 |
| 20260903065041 | 60 | 141 | 0.0 | 0.0 | 0.00 | 0.00 | 0.00 | 83 | 1021.0 |
| 20260903064541 | 60 | 140 | 0.0 | 0.0 | 0.00 | 0.00 | 0.00 | 84 | 1020.9 |
| 20260903064039 | 60 | 126 | 0.0 | 0.0 | 0.00 | 0.00 | 0.00 | 84 | 1020.9 |
| 20260903063538 | 59 | 126 | 0.0 | 0.0 | 0.00 | 0.00 | 0.00 | 84 | 1021.1 |
| 20260903063037 | 59 | 126 | 0.0 | 0.0 | 0.00 | 0.00 | 0.00 | 84 | 1021.0 |
| 20260903062536 | 59 | 124 | 0.0 | 0.0 | 0.00 | 0.00 | 0.00 | 85 | 1021.0 |
| 20260903062037 | 59 | 124 | 0.0 | 0.0 | 0.00 | 0.00 | 0.00 | 87 | 1021.0 |
| 20260903061534 | 58 | 124 | 0.0 | 0.0 | 0.00 | 0.00 | 0.00 | 87 | 1021.0 |
| 20260903061036 | 58 | 124 | 0.0 | 0.0 | 0.00 | 0.00 | 0.00 | 89 | 1020.9 |
| 20260903060531 | 57 | 124 | 0.0 | 0.0 | 0.00 | 0.00 | 0.00 | 89 | 1020.9 |
| 20260903060030 | 57 | 124 | 0.0 | 0.0 | 0.00 | 0.00 | 0.00 | 90 | 1020.9 |
| 20260903055529 | 56 | 124 | 0.0 | 0.0 | 0.00 | 0.00 | 0.00 | 91 | 1020.8 |
| 20260903055128 | 55 | 124 | 0.0 | 0.0 | 0.00 | 0.00 | 0.00 | 91 | 1020.8 |
| 20260903054529 | 55 | 124 | 0.0 | 0.0 | 0.00 | 0.00 | 0.00 | 91 | 1020.9 |
| 20260903054027 | 55 | 124 | 0.0 | 0.0 | 0.00 | 0.00 | 0.00 | 91 | 1020.9 |
| 20260903053529 | 55 | 124 | 0.0 | 0.0 | 0.00 | 0.00 | 0.00 | 91 | 1021.0 |
| 20260903053024 | 55 | 124 | 0.0 | 0.0 | 0.00 | 0.00 | 0.00 | 91 | 1020.9 |
| 20260903052524 | 55 | 124 | 0.0 | 0.0 | 0.00 | 0.00 | 0.00 | 91 | 1021.0 |
| 20260903052024 | 55 | 124 | 0.0 | 0.0 | 0.00 | 0.00 | 0.00 | 91 | 1021.0 |
| 20260903051540 | 55 | 124 | 0.0 | 0.0 | 0.00 | 0.00 | 0.00 | 90 | 1021.1 |
| 20260903051028 | 55 | 124 | 0.0 | 0.0 | 0.00 | 0.00 | 0.00 | 90 | 1021.0 |
| 20260903050522 | 55 | 124 | 0.0 | 0.0 | 0.00 | 0.00 | 0.00 | 90 | 1021.0 |
| 20260903050022 | 55 | 124 | 0.0 | 0.0 | 0.00 | 0.00 | 0.00 | 89 | 1021.1 |
| 20260903045522 | 55 | 124 | 0.0 | 0.0 | 0.00 | 0.00 | 0.00 | 89 | 1020.9 |
| 20260903045026 | 55 | 124 | 0.0 | 0.0 | 0.00 | 0.00 | 0.00 | 89 | 1021.0 |
| 20260903044521 | 55 | 124 | 0.0 | 0.0 | 0.00 | 0.00 | 0.00 | 89 | 1020.8 |
| 20260903044020 | 55 | 124 | 0.0 | 0.0 | 0.00 | 0.00 | 0.00 | 89 | 1020.8 |
| 20260903043519 | 55 | 124 | 0.0 | 0.0 | 0.00 | 0.00 | 0.00 | 90 | 1021.0 |
| 20260903043045 | 55 | 125 | 0.0 | 0.0 | 0.00 | 0.00 | 0.00 | 90 | 1021.1 |
| 20260903042519 | 55 | 126 | 0.0 | 0.0 | 0.00 | 0.00 | 0.00 | 90 | 1021.0 |
| 20260903042021 | 55 | 125 | 0.0 | 0.0 | 0.00 | 0.00 | 0.00 | 90 | 1021.0 |
| 20260903041521 | 55 | 126 | 0.0 | 0.0 | 0.00 | 0.00 | 0.00 | 90 | 1020.9 |
| 20260903041017 | 55 | 126 | 0.0 | 0.0 | 0.00 | 0.00 | 0.00 | 90 | 1021.0 |
| 20260903040517 | 55 | 126 | 0.0 | 0.0 | 0.00 | 0.00 | 0.00 | 91 | 1020.9 |
| 20260903040018 | 55 | 126 | 0.0 | 0.0 | 0.00 | 0.00 | 0.00 | 91 | 1020.9 |
| 20260903035517 | 55 | 129 | 0.0 | 0.0 | 0.00 | 0.00 | 0.00 | 91 | 1021.0 |
| 20260903035017 | 55 | 129 | 0.0 | 0.0 | 0.00 | 0.00 | 0.00 | 92 | 1020.9 |
| 20260903034529 | 55 | 121 | 0.0 | 0.0 | 0.00 | 0.00 | 0.00 | 92 | 1020.8 |
| 20260903034017 | 55 | 121 | 0.0 | 0.0 | 0.00 | 0.00 | 0.00 | 92 | 1020.8 |
| 20260903033518 | 55 | 121 | 0.0 | 0.0 | 0.00 | 0.00 | 0.00 | 92 | 1020.7 |
| 20260903033019 | 55 | 121 | 0.0 | 0.0 | 0.00 | 0.00 | 0.00 | 92 | 1020.7 |
| 20260903032515 | 55 | 121 | 0.0 | 0.0 | 0.00 | 0.00 | 0.00 | 92 | 1020.7 |
| 20260903032017 | 55 | 121 | 0.0 | 0.0 | 0.00 | 0.00 | 0.00 | 91 | 1020.7 |
| 20260903031515 | 55 | 121 | 0.0 | 0.0 | 0.00 | 0.00 | 0.00 | 91 | 1020.7 |
| 20260903031015 | 55 | 121 | 0.0 | 0.0 | 0.00 | 0.00 | 0.00 | 91 | 1020.7 |
| 20260903030513 | 55 | 121 | 0.0 | 0.0 | 0.00 | 0.00 | 0.00 | 91 | 1020.6 |
| 20260903030013 | 55 | 121 | 0.0 | 0.0 | 0.00 | 0.00 | 0.00 | 91 | 1020.5 |
| 20260903025514 | 55 | 121 | 0.0 | 0.0 | 0.00 | 0.00 | 0.00 | 91 | 1020.5 |
| 20260903025013 | 55 | 121 | 0.0 | 0.0 | 0.00 | 0.00 | 0.00 | 91 | 1020.6 |
| 20260903024513 | 55 | 121 | 0.0 | 0.0 | 0.00 | 0.00 | 0.00 | 92 | 1020.7 |
| 20260903024013 | 55 | 121 | 0.0 | 0.0 | 0.00 | 0.00 | 0.00 | 92 | 1020.6 |
| 20260903023512 | 55 | 130 | 0.0 | 0.0 | 0.00 | 0.00 | 0.00 | 91 | 1020.6 |
| 20260903023012 | 55 | 130 | 0.0 | 0.0 | 0.00 | 0.00 | 0.00 | 91 | 1020.6 |
| 20260903022511 | 55 | 130 | 0.0 | 0.0 | 0.00 | 0.00 | 0.00 | 91 | 1020.5 |
| 20260903022011 | 55 | 130 | 0.0 | 0.0 | 0.00 | 0.00 | 0.00 | 91 | 1020.5 |
| 20260903021514 | 55 | 130 | 0.0 | 0.0 | 0.00 | 0.00 | 0.00 | 91 | 1020.6 |
| 20260903021012 | 56 | 130 | 0.0 | 0.0 | 0.00 | 0.00 | 0.00 | 91 | 1020.6 |
| 20260903020511 | 56 | 130 | 0.0 | 0.0 | 0.00 | 0.00 | 0.00 | 90 | 1020.7 |
| 20260903020013 | 56 | 130 | 0.0 | 0.0 | 0.00 | 0.00 | 0.00 | 90 | 1020.7 |
| 20260903015510 | 56 | 130 | 0.0 | 0.0 | 0.00 | 0.00 | 0.00 | 90 | 1020.7 |
| 20260903015009 | 56 | 130 | 0.0 | 0.0 | 0.00 | 0.00 | 0.00 | 91 | 1020.6 |
| 20260903014516 | 56 | 130 | 0.0 | 0.0 | 0.00 | 0.00 | 0.00 | 91 | 1020.6 |
| 20260903014012 | 56 | 130 | 0.0 | 0.0 | 0.00 | 0.00 | 0.00 | 91 | 1020.5 |
| 20260903013511 | 56 | 130 | 0.0 | 0.0 | 0.00 | 0.00 | 0.00 | 91 | 1020.5 |
| 20260903013010 | 56 | 130 | 0.0 | 0.0 | 0.00 | 0.00 | 0.00 | 91 | 1020.6 |
| 20260903012508 | 56 | 130 | 0.0 | 0.0 | 0.00 | 0.00 | 0.00 | 91 | 1020.6 |
| 20260903012009 | 56 | 131 | 0.0 | 0.0 | 0.00 | 0.00 | 0.00 | 91 | 1020.6 |
| 20260903011514 | 56 | 111 | 0.0 | 0.0 | 0.00 | 0.00 | 0.00 | 90 | 1020.6 |
| 20260903011009 | 56 | 111 | 0.0 | 0.0 | 0.00 | 0.00 | 0.00 | 90 | 1020.5 |
| 20260903010507 | 56 | 111 | 0.0 | 0.0 | 0.00 | 0.00 | 0.00 | 90 | 1020.6 |
| 20260903010007 | 56 | 111 | 0.0 | 0.0 | 0.00 | 0.00 | 0.00 | 91 | 1020.6 |
| 20260903005507 | 56 | 111 | 0.0 | 0.0 | 0.00 | 0.00 | 0.00 | 91 | 1020.7 |
| 20260903005008 | 56 | 111 | 0.0 | 0.0 | 0.00 | 0.00 | 0.00 | 92 | 1020.6 |
| 20260903004508 | 56 | 111 | 0.0 | 0.0 | 0.00 | 0.00 | 0.00 | 92 | 1020.6 |
| 20260903004007 | 56 | 111 | 0.0 | 0.0 | 0.00 | 0.00 | 0.00 | 92 | 1020.7 |
| 20260903003507 | 55 | 111 | 0.0 | 0.0 | 0.00 | 0.00 | 0.00 | 92 | 1020.5 |
| 20260903003009 | 55 | 111 | 0.0 | 0.0 | 0.00 | 0.00 | 0.00 | 92 | 1020.6 |
| 20260903002506 | 55 | 111 | 0.0 | 0.0 | 0.00 | 0.00 | 0.00 | 92 | 1020.6 |
| 20260903002006 | 55 | 111 | 0.0 | 0.0 | 0.00 | 0.00 | 0.00 | 92 | 1020.7 |
| 20260903001506 | 55 | 111 | 0.0 | 0.0 | 0.00 | 0.00 | 0.00 | 92 | 1020.5 |
| 20260903001006 | 55 | 111 | 0.0 | 0.0 | 0.00 | 0.00 | 0.00 | 92 | 1020.6 |
| 20260903000504 | 55 | 111 | 0.0 | 0.0 | 0.00 | 0.00 | 0.00 | 92 | 1020.6 |
| 20260903000004 | 56 | 111 | 0.0 | 0.0 | 0.00 | 0.00 | 0.00 | 92 | 1020.6 |
| 20260902235504 | 56 | 111 | 0.0 | 0.0 | 0.00 | 0.00 | 0.00 | 92 | 1020.6 |
| 20260902235006 | 56 | 111 | 0.0 | 0.0 | 0.00 | 0.00 | 0.00 | 92 | 1020.6 |
| 20260902234502 | 56 | 111 | 0.0 | 0.0 | 0.00 | 0.00 | 0.00 | 92 | 1020.7 |
| 20260902234002 | 56 | 111 | 0.0 | 0.0 | 0.00 | 0.00 | 0.00 | 92 | 1020.6 |
| 20260902233505 | 56 | 111 | 0.0 | 0.0 | 0.00 | 0.00 | 0.00 | 92 | 1020.6 |
| 20260902233002 | 56 | 111 | 0.0 | 0.0 | 0.00 | 0.00 | 0.00 | 92 | 1020.6 |
| 20260902232503 | 56 | 111 | 0.0 | 0.0 | 0.00 | 0.00 | 0.00 | 92 | 1020.6 |
| 20260902232001 | 56 | 111 | 0.0 | 0.0 | 0.00 | 0.00 | 0.00 | 92 | 1020.6 |
| 20260902231501 | 56 | 111 | 0.0 | 0.0 | 0.00 | 0.00 | 0.00 | 92 | 1020.5 |
| 20260902231002 | 56 | 111 | 0.0 | 0.0 | 0.00 | 0.00 | 0.00 | 92 | 1020.5 |
| 20260902230603 | 56 | 111 | 0.0 | 0.0 | 0.00 | 0.00 | 0.00 | 92 | 1020.6 |
| 20260902230106 | 56 | 111 | 0.0 | 0.0 | 0.00 | 0.00 | 0.00 | 92 | 1020.6 |
| 20260902225559 | 56 | 111 | 0.0 | 0.0 | 0.00 | 0.00 | 0.00 | 92 | 1020.7 |
| 20260902225058 | 56 | 111 | 0.0 | 0.0 | 0.00 | 0.00 | 0.00 | 93 | 1020.6 |
| 20260902224611 | 56 | 111 | 0.0 | 0.0 | 0.00 | 0.00 | 0.00 | 92 | 1020.6 |
| 20260902224058 | 56 | 111 | 0.0 | 0.0 | 0.00 | 0.00 | 0.00 | 93 | 1020.7 |
| 20260902223558 | 56 | 111 | 0.0 | 0.0 | 0.00 | 0.00 | 0.00 | 92 | 1020.7 |
| 20260902223058 | 56 | 111 | 0.0 | 0.0 | 0.00 | 0.00 | 0.00 | 92 | 1020.7 |
| 20260902222559 | 56 | 111 | 0.0 | 0.0 | 0.00 | 0.00 | 0.00 | 92 | 1020.8 |
| 20260902222058 | 56 | 111 | 0.0 | 0.0 | 0.00 | 0.00 | 0.00 | 91 | 1020.8 |
| 20260902221556 | 56 | 111 | 0.0 | 0.0 | 0.00 | 0.00 | 0.00 | 91 | 1020.7 |
| 20260902221055 | 56 | 111 | 0.0 | 0.0 | 0.00 | 0.00 | 0.00 | 91 | 1020.7 |
| 20260902220554 | 57 | 111 | 0.0 | 0.0 | 0.00 | 0.00 | 0.00 | 91 | 1020.7 |
| 20260902220057 | 57 | 111 | 0.0 | 0.0 | 0.00 | 0.00 | 0.00 | 91 | 1020.9 |
| 20260902215554 | 57 | 111 | 0.0 | 0.0 | 0.00 | 0.00 | 0.00 | 90 | 1020.8 |
| 20260902215052 | 57 | 111 | 0.0 | 0.0 | 0.00 | 0.00 | 0.00 | 90 | 1020.7 |
| 20260902214556 | 58 | 111 | 0.0 | 0.0 | 0.00 | 0.00 | 0.00 | 89 | 1020.8 |
| 20260902214053 | 58 | 111 | 0.0 | 0.0 | 0.00 | 0.00 | 0.00 | 89 | 1020.8 |
| 20260902213552 | 58 | 111 | 0.0 | 0.0 | 0.00 | 0.00 | 0.00 | 89 | 1020.9 |
| 20260902213054 | 58 | 111 | 0.0 | 0.0 | 0.00 | 0.00 | 0.00 | 89 | 1020.8 |
| 20260902212552 | 58 | 111 | 0.0 | 0.0 | 0.00 | 0.00 | 0.00 | 89 | 1020.7 |
| 20260902212052 | 58 | 111 | 0.0 | 0.0 | 0.00 | 0.00 | 0.00 | 89 | 1020.7 |
| 20260902211551 | 58 | 111 | 0.0 | 0.0 | 0.00 | 0.00 | 0.00 | 89 | 1020.8 |
| 20260902211053 | 58 | 111 | 0.0 | 0.0 | 0.00 | 0.00 | 0.00 | 89 | 1020.7 |
| 20260902210551 | 58 | 111 | 0.0 | 0.0 | 0.00 | 0.00 | 0.00 | 89 | 1020.7 |
| 20260902210051 | 58 | 111 | 0.0 | 0.0 | 0.00 | 0.00 | 0.00 | 89 | 1020.6 |
| 20260902205550 | 58 | 111 | 0.0 | 0.0 | 0.00 | 0.00 | 0.00 | 89 | 1020.5 |
| 20260902205051 | 58 | 111 | 0.0 | 0.0 | 0.00 | 0.00 | 0.00 | 89 | 1020.5 |
| 20260902204551 | 58 | 111 | 0.0 | 0.0 | 0.00 | 0.00 | 0.00 | 89 | 1020.5 |
| 20260902204050 | 58 | 111 | 0.0 | 0.0 | 0.00 | 0.00 | 0.00 | 89 | 1020.5 |
| 20260902203554 | 58 | 111 | 0.0 | 0.0 | 0.00 | 0.00 | 0.00 | 89 | 1020.5 |
| 20260902203050 | 58 | 111 | 0.0 | 0.0 | 0.00 | 0.00 | 0.00 | 89 | 1020.5 |
| 20260902202551 | 58 | 111 | 0.0 | 0.0 | 0.00 | 0.00 | 0.00 | 89 | 1020.5 |
| 20260902202051 | 58 | 111 | 0.0 | 0.0 | 0.00 | 0.00 | 0.00 | 89 | 1020.6 |
| 20260902201603 | 58 | 111 | 0.0 | 0.0 | 0.00 | 0.00 | 0.00 | 89 | 1020.4 |
| 20260902201050 | 58 | 111 | 0.0 | 0.0 | 0.00 | 0.00 | 0.00 | 89 | 1020.4 |
| 20260902200549 | 58 | 111 | 0.0 | 0.0 | 0.00 | 0.00 | 0.00 | 89 | 1020.5 |
| 20260902200117 | 58 | 112 | 0.0 | 0.0 | 0.00 | 0.00 | 0.00 | 89 | 1020.4 |
| 20260902195549 | 58 | 112 | 0.0 | 0.0 | 0.00 | 0.00 | 0.00 | 89 | 1020.5 |
| 20260902195049 | 58 | 112 | 0.0 | 0.0 | 0.00 | 0.00 | 0.00 | 89 | 1020.6 |
| 20260902194549 | 58 | 113 | 0.0 | 0.0 | 0.00 | 0.00 | 0.00 | 89 | 1020.6 |
| 20260902194051 | 58 | 113 | 0.0 | 0.0 | 0.00 | 0.00 | 0.00 | 89 | 1020.6 |
| 20260902193549 | 58 | 113 | 0.0 | 0.0 | 0.00 | 0.00 | 0.00 | 89 | 1020.5 |
| 20260902193049 | 58 | 113 | 0.0 | 0.0 | 0.00 | 0.00 | 0.00 | 89 | 1020.5 |
| 20260902192548 | 58 | 113 | 0.0 | 0.0 | 0.00 | 0.00 | 0.00 | 89 | 1020.4 |
| 20260902192048 | 58 | 113 | 0.0 | 0.0 | 0.00 | 0.00 | 0.00 | 89 | 1020.4 |
| 20260902191551 | 58 | 113 | 0.0 | 0.0 | 0.00 | 0.00 | 0.00 | 88 | 1020.4 |
| 20260902191047 | 58 | 113 | 0.0 | 0.0 | 0.00 | 0.00 | 0.00 | 88 | 1020.4 |
| 20260902190547 | 58 | 113 | 0.0 | 0.0 | 0.00 | 0.00 | 0.00 | 88 | 1020.3 |
| 20260902190059 | 58 | 113 | 0.0 | 0.0 | 0.00 | 0.00 | 0.00 | 88 | 1020.1 |
| 20260902185550 | 58 | 113 | 0.0 | 0.0 | 0.00 | 0.00 | 0.00 | 87 | 1020.3 |
| 20260902185053 | 59 | 113 | 0.0 | 0.0 | 0.00 | 0.00 | 0.00 | 87 | 1020.2 |
| 20260902184546 | 59 | 113 | 0.0 | 0.0 | 0.00 | 0.00 | 0.00 | 87 | 1020.2 |
| 20260902184046 | 59 | 115 | 0.0 | 0.0 | 0.00 | 0.00 | 0.00 | 87 | 1020.2 |
| 20260902183550 | 59 | 115 | 0.0 | 0.0 | 0.00 | 0.00 | 0.00 | 87 | 1020.3 |
| 20260902183049 | 59 | 115 | 0.0 | 0.0 | 0.00 | 0.00 | 0.00 | 87 | 1020.1 |
| 20260902182546 | 59 | 117 | 0.0 | 0.0 | 0.00 | 0.00 | 0.00 | 87 | 1020.1 |
| 20260902182046 | 59 | 122 | 0.0 | 0.0 | 0.00 | 0.00 | 0.00 | 87 | 1020.1 |
| 20260902181546 | 59 | 130 | 0.0 | 0.0 | 0.00 | 0.00 | 0.00 | 87 | 1020.0 |
| 20260902181045 | 60 | 130 | 0.0 | 0.0 | 0.00 | 0.00 | 0.00 | 87 | 1020.0 |
| 20260902180545 | 60 | 130 | 0.0 | 0.0 | 0.00 | 0.00 | 0.00 | 87 | 1020.1 |
| 20260902180045 | 60 | 130 | 0.0 | 0.0 | 0.00 | 0.00 | 0.00 | 87 | 1020.0 |
| 20260902175545 | 60 | 130 | 0.0 | 0.0 | 0.00 | 0.00 | 0.00 | 86 | 1019.9 |
| 20260902175045 | 60 | 130 | 0.0 | 0.0 | 0.00 | 0.00 | 0.00 | 86 | 1019.8 |
| 20260902174546 | 61 | 130 | 0.0 | 0.0 | 0.00 | 0.00 | 0.00 | 85 | 1019.9 |
| 20260902174045 | 61 | 130 | 0.0 | 0.0 | 0.00 | 0.00 | 0.00 | 85 | 1019.8 |
| 20260902173546 | 61 | 130 | 0.0 | 0.0 | 0.00 | 0.00 | 0.00 | 85 | 1019.9 |
| 20260902173045 | 62 | 130 | 0.0 | 0.0 | 0.00 | 0.00 | 0.00 | 85 | 1020.1 |
| 20260902172544 | 62 | 130 | 0.0 | 0.0 | 0.00 | 0.00 | 0.00 | 84 | 1019.9 |
| 20260902172045 | 62 | 130 | 0.0 | 0.0 | 0.00 | 0.00 | 0.00 | 83 | 1019.8 |
| 20260902171545 | 63 | 130 | 0.0 | 0.0 | 0.00 | 0.00 | 0.00 | 83 | 1019.8 |
| 20260902171048 | 64 | 130 | 0.0 | 0.0 | 0.00 | 0.00 | 0.00 | 82 | 1019.9 |
| 20260902170547 | 64 | 130 | 0.0 | 0.0 | 0.00 | 0.00 | 0.00 | 82 | 1019.9 |
| 20260902170043 | 65 | 130 | 0.0 | 0.0 | 0.00 | 0.00 | 0.00 | 81 | 1019.9 |
| 20260902165543 | 65 | 130 | 0.0 | 0.0 | 0.00 | 0.00 | 0.00 | 80 | 1019.9 |
| 20260902165047 | 66 | 130 | 0.0 | 0.0 | 0.00 | 0.00 | 0.00 | 79 | 1019.9 |
| 20260902164543 | 66 | 130 | 0.0 | 0.0 | 0.00 | 0.00 | 0.00 | 79 | 1020.0 |
| 20260902164043 | 67 | 130 | 0.0 | 0.0 | 0.00 | 0.00 | 0.00 | 78 | 1020.0 |
| 20260902163543 | 67 | 130 | 0.0 | 0.0 | 0.00 | 0.00 | 0.00 | 78 | 1019.9 |
| 20260902163042 | 67 | 131 | 0.0 | 0.0 | 0.00 | 0.00 | 0.00 | 78 | 1020.0 |
| 20260902162542 | 67 | 131 | 0.0 | 0.0 | 0.00 | 0.00 | 0.00 | 78 | 1020.0 |
| 20260902162044 | 67 | 131 | 0.0 | 0.0 | 0.00 | 0.00 | 0.00 | 77 | 1020.0 |
| 20260902161550 | 67 | 132 | 0.0 | 0.0 | 0.00 | 0.00 | 0.00 | 77 | 1019.9 |
| 20260902161042 | 68 | 132 | 0.0 | 0.0 | 0.00 | 0.00 | 0.00 | 77 | 1020.1 |
| 20260902160541 | 68 | 132 | 0.0 | 0.0 | 0.00 | 0.00 | 0.00 | 76 | 1020.0 |
| 20260902160041 | 68 | 132 | 0.0 | 0.0 | 0.00 | 0.00 | 0.00 | 77 | 1020.0 |
| 20260902155541 | 68 | 132 | 0.0 | 0.0 | 0.00 | 0.00 | 0.00 | 74 | 1020.0 |
| 20260902155044 | 68 | 132 | 0.0 | 0.0 | 0.00 | 0.00 | 0.00 | 74 | 1020.0 |
| 20260902154540 | 68 | 132 | 0.0 | 0.0 | 0.00 | 0.00 | 0.00 | 76 | 1020.0 |
| 20260902154040 | 68 | 133 | 0.0 | 0.0 | 0.00 | 0.00 | 0.00 | 75 | 1019.9 |
| 20260902153540 | 68 | 133 | 0.0 | 0.0 | 0.00 | 0.00 | 0.00 | 74 | 1019.9 |
| 20260902153040 | 68 | 134 | 0.0 | 0.0 | 0.00 | 0.00 | 0.00 | 74 | 1020.0 |
| 20260902152541 | 69 | 134 | 0.0 | 0.0 | 0.00 | 0.00 | 0.00 | 73 | 1020.0 |